STATION HISTORICAL DATA FROM WUNDERGROUND.COM FOR HIGH PARK VILLAGE,TORONTO,ON,CANADA
 
Daily Summary for September 22, 2019 Units:  Metric    English   Both
Next Day »
Daily Weekly Monthly Yearly Custom
  Current: High: Low: Average:
Temperature: 30.7 °C 31.5 °C 20.3 °C 23.4 °C
Dew Point: 15.6 °C 20.2 °C 15.6 °C 18.1 °C
Humidity: 40% 89% 40% 76%
Wind Speed: 11.1km/h 16.7km/h 0km/h 4.2km/h
Wind Gust: 4.3km/h 6.4km/h - -
WindSE - - SSE
Pressure: 1009 hPa 1016.8 hPa 1009 hPa -
Precipitation: 0 mm      
Historical Graphs
 
 
Tabular Data for September 22, 2019
Time Temperature Dew Point Pressure Wind Wind Speed Wind Gust Humidity Rainfall Rate (Hourly) Solar Conditions
00:00 21.5 °C 18.5 °C 1016.8 hPa Calm     83% 0 mm WeatherDisplay:10.37 W/m2 OVC
00:05 21.4 °C 18.6 °C 1016.5 hPa Calm     84% 0 mm WeatherDisplay:10.37 W/m2 CLR
00:10 21.4 °C 18.6 °C 1016.5 hPa Calm     84% 0 mm WeatherDisplay:10.37 W/m2 CLR
00:15 21.4 °C 18.6 °C 1016.5 hPa Calm     84% 0 mm WeatherDisplay:10.37 W/m2 OVC
00:20 21.3 °C 18.6 °C 1016.5 hPa Calm     84% 0 mm WeatherDisplay:10.37 W/m2 OVC
00:25 21.3 °C 18.6 °C 1016.5 hPa Calm     84% 0 mm WeatherDisplay:10.37 W/m2 OVC
00:30 21.3 °C 18.7 °C 1016.5 hPa Calm     85% 0 mm WeatherDisplay:10.37 W/m2 OVC
00:35 21.3 °C 18.7 °C 1016.5 hPa Calm     85% 0 mm WeatherDisplay:10.37 W/m2 OVC
00:40 21.3 °C 18.7 °C 1016.5 hPa Calm     85% 0 mm WeatherDisplay:10.37 W/m2 CLR
00:45 21.2 °C 18.6 °C 1016.5 hPa Calm     85% 0 mm WeatherDisplay:10.37 W/m2 CLR
00:50 21.2 °C 18.6 °C 1016.5 hPa Calm     85% 0 mm WeatherDisplay:10.37 W/m2 OVC
00:55 21.1 °C 18.5 °C 1016.5 hPa Calm     85% 0 mm WeatherDisplay:10.37 W/m2 OVC
01:00 21.1 °C 18.6 °C 1016.5 hPa Calm     86% 0 mm WeatherDisplay:10.37 W/m2 OVC
01:05 21 °C 18.6 °C 1016.5 hPa SSW 1.9 km/h   86% 0 mm WeatherDisplay:10.37 W/m2 CLR
01:10 20.9 °C 18.5 °C 1016.5 hPa SSW 1.9 km/h   86% 0 mm WeatherDisplay:10.37 W/m2 OVC
01:15 20.9 °C 18.4 °C 1016.5 hPa Calm     86% 0 mm WeatherDisplay:10.37 W/m2 OVC
01:20 20.8 °C 18.6 °C 1016.5 hPa Calm     87% 0 mm WeatherDisplay:10.37 W/m2 CLR
01:25 20.8 °C 18.6 °C 1016.5 hPa Calm     87% 0 mm WeatherDisplay:10.37 W/m2 CLR
01:30 20.8 °C 18.6 °C 1016.5 hPa Calm     87% 0 mm WeatherDisplay:10.37 W/m2 CLR
01:35 20.8 °C 18.6 °C 1016.5 hPa Calm     87% 0 mm WeatherDisplay:10.37 W/m2 CLR
01:40 20.7 °C 18.5 °C 1016.5 hPa Calm     87% 0 mm WeatherDisplay:10.37 W/m2 OVC
01:45 20.7 °C 18.4 °C 1016.5 hPa Calm     87% 0 mm WeatherDisplay:10.37 W/m2 OVC
01:50 20.7 °C 18.4 °C 1016.5 hPa Calm     87% 0 mm WeatherDisplay:10.37 W/m2 OVC
01:55 20.6 °C 18.4 °C 1016.5 hPa Calm     87% 0 mm WeatherDisplay:10.37 W/m2 CLR
02:00 20.6 °C 18.3 °C 1016.5 hPa Calm     87% 0 mm WeatherDisplay:10.37 W/m2 OVC
02:05 20.6 °C 18.3 °C 1016.5 hPa South 1.9 km/h   87% 0 mm WeatherDisplay:10.37 W/m2 CLR
02:10 20.6 °C 18.3 °C 1016.5 hPa South 1.9 km/h   87% 0 mm WeatherDisplay:10.37 W/m2 OVC
02:15 20.6 °C 18.3 °C 1016.1 hPa Calm     87% 0 mm WeatherDisplay:10.37 W/m2 CLR
02:20 20.6 °C 18.2 °C 1016.1 hPa SSE 1.9 km/h 0.5 km/h 86% 0 mm WeatherDisplay:10.37 W/m2 CLR
02:25 20.6 °C 18.2 °C 1016.1 hPa SSE 1.9 km/h   86% 0 mm WeatherDisplay:10.37 W/m2 OVC
02:30 20.6 °C 18.2 °C 1016.1 hPa SSE 1.9 km/h   86% 0 mm WeatherDisplay:10.37 W/m2 OVC
02:35 20.6 °C 18.2 °C 1016.1 hPa South 1.9 km/h 0.2 km/h 86% 0 mm WeatherDisplay:10.37 W/m2 OVC
02:40 20.6 °C 18 °C 1016.1 hPa SSE 1.9 km/h   85% 0 mm WeatherDisplay:10.37 W/m2 OVC
02:45 20.7 °C 18.1 °C 1016.1 hPa SSE 1.9 km/h   85% 0 mm WeatherDisplay:10.37 W/m2 OVC
02:50 20.7 °C 18.3 °C 1016.1 hPa SSE 1.9 km/h   86% 0 mm WeatherDisplay:10.37 W/m2 OVC
02:55 20.7 °C 18.3 °C 1015.8 hPa SSE 1.9 km/h   86% 0 mm WeatherDisplay:10.37 W/m2 OVC
03:00 20.7 °C 18.1 °C 1015.8 hPa SSE 1.9 km/h 0.6 km/h 85% 0 mm WeatherDisplay:10.37 W/m2 OVC
03:05 20.7 °C 18.1 °C 1015.8 hPa SSE 1.9 km/h   85% 0 mm WeatherDisplay:10.37 W/m2 CLR
03:10 20.7 °C 18.1 °C 1015.8 hPa South 1.9 km/h   85% 0 mm WeatherDisplay:10.37 W/m2 OVC
03:15 20.7 °C 17.9 °C 1015.5 hPa South 1.9 km/h   84% 0 mm WeatherDisplay:10.37 W/m2 OVC
03:20 20.7 °C 17.9 °C 1015.5 hPa South 3.7 km/h 0.2 km/h 84% 0 mm WeatherDisplay:10.37 W/m2 CLR
03:25 20.7 °C 17.9 °C 1015.5 hPa South 3.7 km/h   84% 0 mm WeatherDisplay:10.37 W/m2 CLR
03:30 20.7 °C 17.9 °C 1015.5 hPa South 1.9 km/h   84% 0 mm WeatherDisplay:10.37 W/m2 OVC
03:35 20.8 °C 18 °C 1015.5 hPa SSE 1.9 km/h   84% 0 mm WeatherDisplay:10.37 W/m2 OVC
03:40 20.8 °C 18 °C 1015.5 hPa Calm     84% 0 mm WeatherDisplay:10.37 W/m2 CLR
03:45 20.8 °C 18.2 °C 1015.1 hPa Calm     85% 0 mm WeatherDisplay:10.37 W/m2 CLR
03:50 20.8 °C 18.2 °C 1015.1 hPa Calm     85% 0 mm WeatherDisplay:10.37 W/m2 OVC
03:55 20.8 °C 18.2 °C 1015.1 hPa Calm     85% 0 mm WeatherDisplay:10.37 W/m2 OVC
04:00 20.8 °C 18.4 °C 1015.1 hPa Calm     86% 0 mm WeatherDisplay:10.37 W/m2 OVC
04:05 20.8 °C 18.4 °C 1015.1 hPa Calm     86% 0 mm WeatherDisplay:10.37 W/m2 CLR
04:10 20.8 °C 18.3 °C 1015.1 hPa Calm     86% 0 mm WeatherDisplay:10.37 W/m2 OVC
04:15 20.7 °C 18.3 °C 1015.1 hPa Calm     86% 0 mm WeatherDisplay:10.37 W/m2 OVC
04:20 20.7 °C 18.3 °C 1015.1 hPa SSE 1.9 km/h   86% 0 mm WeatherDisplay:10.37 W/m2 OVC
04:25 20.7 °C 18.4 °C 1015.1 hPa SSE 1.9 km/h   87% 0 mm WeatherDisplay:10.37 W/m2 CLR
04:30 20.6 °C 18.4 °C 1015.1 hPa South 1.9 km/h   87% 0 mm WeatherDisplay:10.37 W/m2 CLR
04:35 20.6 °C 18.3 °C 1015.1 hPa Calm     87% 0 mm WeatherDisplay:10.37 W/m2 CLR
04:40 20.5 °C 18.3 °C 1015.1 hPa Calm     87% 0 mm WeatherDisplay:10.37 W/m2 CLR
04:45 20.6 °C 18.3 °C 1015.1 hPa South 1.9 km/h   87% 0 mm WeatherDisplay:10.37 W/m2 CLR
04:50 20.5 °C 18.3 °C 1015.1 hPa South 1.9 km/h   87% 0 mm WeatherDisplay:10.37 W/m2 CLR
04:55 20.5 °C 18.3 °C 1015.1 hPa Calm     87% 0 mm WeatherDisplay:10.37 W/m2 OVC
05:00 20.5 °C 18.3 °C 1015.1 hPa Calm     87% 0 mm WeatherDisplay:10.37 W/m2 OVC
05:05 20.5 °C 18.3 °C 1015.1 hPa Calm     87% 0 mm WeatherDisplay:10.37 W/m2 OVC
05:10 20.5 °C 18.3 °C 1015.1 hPa Calm     87% 0 mm WeatherDisplay:10.37 W/m2 CLR
05:15 20.4 °C 18.2 °C 1015.1 hPa Calm     87% 0 mm WeatherDisplay:10.37 W/m2 OVC
05:20 20.4 °C 18.2 °C 1015.5 hPa Calm     87% 0 mm WeatherDisplay:10.37 W/m2 OVC
05:25 20.3 °C 18.1 °C 1015.5 hPa Calm     87% 0 mm WeatherDisplay:10.37 W/m2 OVC
05:30 20.3 °C 18.1 °C 1015.5 hPa Calm     87% 0 mm WeatherDisplay:10.37 W/m2 CLR
05:35 20.3 °C 18.2 °C 1015.5 hPa Calm     88% 0 mm WeatherDisplay:10.37 W/m2 CLR
05:40 20.3 °C 18.2 °C 1015.5 hPa Calm     88% 0 mm WeatherDisplay:10.37 W/m2 CLR
05:45 20.3 °C 18.2 °C 1015.5 hPa Calm     88% 0 mm WeatherDisplay:10.37 W/m2 CLR
05:50 20.3 °C 18.2 °C 1015.5 hPa Calm     88% 0 mm WeatherDisplay:10.37 W/m2 CLR
05:55 20.3 °C 18.2 °C 1015.5 hPa Calm     88% 0 mm WeatherDisplay:10.37 W/m2 OVC
06:00 20.3 °C 18.3 °C 1015.5 hPa Calm     88% 0 mm WeatherDisplay:10.37 W/m2 OVC
06:05 20.3 °C 18.3 °C 1015.5 hPa Calm     88% 0 mm WeatherDisplay:10.37 W/m2 CLR
06:10 20.4 °C 18.3 °C 1015.5 hPa Calm     88% 0 mm WeatherDisplay:10.37 W/m2 OVC
06:15 20.4 °C 18.4 °C 1015.5 hPa Calm     88% 0 mm WeatherDisplay:10.37 W/m2 OVC
06:20 20.5 °C 18.4 °C 1015.5 hPa Calm     88% 0 mm WeatherDisplay:10.37 W/m2 OVC
06:25 20.5 °C 18.4 °C 1015.5 hPa Calm     88% 0 mm WeatherDisplay:10.37 W/m2 CLR
06:30 20.6 °C 18.5 °C 1015.5 hPa Calm     88% 0 mm WeatherDisplay:10.37 W/m2 CLR
06:35 20.6 °C 18.4 °C 1015.8 hPa SSE 1.9 km/h 0.2 km/h 87% 0 mm WeatherDisplay:10.37 W/m2 CLR
06:40 20.7 °C 18.4 °C 1015.8 hPa SSE 1.9 km/h 0.2 km/h 87% 0 mm WeatherDisplay:10.37 W/m2 OVC
06:45 20.7 °C 18.4 °C 1015.8 hPa SSE 1.9 km/h   87% 0 mm WeatherDisplay:10.37 W/m2 OVC
06:50 20.7 °C 18.4 °C 1015.5 hPa SSE 1.9 km/h   87% 0 mm WeatherDisplay:10.37 W/m2 CLR
06:55 20.7 °C 18.4 °C 1015.5 hPa SSE 1.9 km/h   87% 0 mm WeatherDisplay:10.37 W/m2 CLR
07:00 20.7 °C 18.4 °C 1015.5 hPa South 1.9 km/h   87% 0 mm WeatherDisplay:10.37 W/m2 OVC
07:05 20.6 °C 18.4 °C 1015.5 hPa South 1.9 km/h   87% 0 mm WeatherDisplay:10.37 W/m2 OVC
07:10 20.6 °C 18.4 °C 1015.1 hPa South 1.9 km/h   87% 0 mm WeatherDisplay:10.37 W/m2 CLR
07:15 20.6 °C 18.5 °C 1015.1 hPa Calm     88% 0 mm WeatherDisplay:10.37 W/m2 CLR
07:20 20.6 °C 18.5 °C 1015.5 hPa South 1.9 km/h   88% 0 mm WeatherDisplay:10.37 W/m2 CLR
07:25 20.5 °C 18.4 °C 1015.8 hPa South 3.7 km/h 0.3 km/h 88% 0 mm WeatherDisplay:10.37 W/m2 CLR
07:30 20.4 °C 18.4 °C 1015.5 hPa SSE 3.7 km/h 0.3 km/h 88% 0 mm WeatherDisplay:10.37 W/m2 OVC
07:35 20.4 °C 18.6 °C 1015.5 hPa SSE 5.6 km/h 0.5 km/h 89% 0 mm WeatherDisplay:10.37 W/m2 OVC
07:40 20.4 °C 18.6 °C 1015.5 hPa South 5.6 km/h 0.6 km/h 89% 0 mm WeatherDisplay:10.37 W/m2 CLR
07:45 20.4 °C 18.6 °C 1015.8 hPa South 3.7 km/h 0.6 km/h 89% 0 mm WeatherDisplay:10.37 W/m2 OVC
07:50 20.4 °C 18.6 °C 1015.5 hPa South 3.7 km/h   89% 0 mm WeatherDisplay:10.37 W/m2 OVC
07:55 20.4 °C 18.6 °C 1015.5 hPa SSE 1.9 km/h   89% 0 mm WeatherDisplay:10.37 W/m2 CLR
08:00 20.4 °C 18.6 °C 1015.5 hPa SSE 1.9 km/h   89% 0 mm WeatherDisplay:10.37 W/m2 OVC
08:05 20.5 °C 18.6 °C 1015.5 hPa South 1.9 km/h   89% 0 mm WeatherDisplay:10.37 W/m2 CLR
08:10 20.6 °C 18.7 °C 1015.5 hPa South 1.9 km/h   89% 0 mm WeatherDisplay:10.37 W/m2 OVC
08:15 20.6 °C 18.7 °C 1015.5 hPa South 1.9 km/h   89% 0 mm WeatherDisplay:10.37 W/m2 OVC
08:20 20.7 °C 18.8 °C 1015.1 hPa SSE 1.9 km/h 0.2 km/h 89% 0 mm WeatherDisplay:10.37 W/m2 CLR
08:25 20.8 °C 18.9 °C 1015.5 hPa South 1.9 km/h 0.3 km/h 89% 0 mm WeatherDisplay:10.37 W/m2 CLR
08:30 20.9 °C 19 °C 1015.1 hPa South 1.9 km/h   89% 0 mm WeatherDisplay:10.37 W/m2 CLR
08:35 20.9 °C 18.9 °C 1015.1 hPa South 1.9 km/h   88% 0 mm WeatherDisplay:10.37 W/m2 OVC
08:40 21.1 °C 19 °C 1015.1 hPa South 1.9 km/h   88% 0 mm WeatherDisplay:10.37 W/m2 OVC
08:45 21.1 °C 19.1 °C 1015.1 hPa Calm     88% 0 mm WeatherDisplay:10.37 W/m2 CLR
08:50 21.2 °C 19.1 °C 1015.1 hPa Calm     88% 0 mm WeatherDisplay:10.37 W/m2 CLR
08:55 21.2 °C 19.2 °C 1015.1 hPa Calm     88% 0 mm WeatherDisplay:10.37 W/m2 OVC
09:00 21.3 °C 19.1 °C 1015.1 hPa Calm     87% 0 mm WeatherDisplay:10.37 W/m2 OVC
09:05 21.3 °C 19.2 °C 1015.1 hPa SSE 1.9 km/h   88% 0 mm WeatherDisplay:10.37 W/m2 CLR
09:10 21.3 °C 19.2 °C 1014.8 hPa South 1.9 km/h   88% 0 mm WeatherDisplay:10.37 W/m2 OVC
09:15 21.3 °C 19.3 °C 1014.8 hPa South 1.9 km/h   88% 0 mm WeatherDisplay:10.37 W/m2 CLR
09:20 21.3 °C 19.3 °C 1014.8 hPa South 1.9 km/h   88% 0 mm WeatherDisplay:10.37 W/m2 CLR
09:25 21.4 °C 19.3 °C 1014.8 hPa South 1.9 km/h   88% 0 mm WeatherDisplay:10.37 W/m2 OVC
09:30 21.4 °C 19.3 °C 1014.8 hPa South 1.9 km/h   88% 0 mm WeatherDisplay:10.37 W/m2 CLR
09:35 21.4 °C 19.4 °C 1014.8 hPa South 1.9 km/h   88% 0 mm WeatherDisplay:10.37 W/m2 OVC
09:40 21.4 °C 19.4 °C 1014.8 hPa SSE 1.9 km/h   88% 0 mm WeatherDisplay:10.37 W/m2 CLR
09:45 21.5 °C 19.3 °C 1014.4 hPa SSE 1.9 km/h   87% 0 mm WeatherDisplay:10.37 W/m2 CLR
09:50 21.5 °C 19.3 °C 1014.4 hPa South 1.9 km/h 0.2 km/h 87% 0 mm WeatherDisplay:10.37 W/m2 OVC
09:55 21.6 °C 19.4 °C 1014.4 hPa South 1.9 km/h   87% 0 mm WeatherDisplay:10.37 W/m2 OVC
10:00 21.7 °C 19.5 °C 1014.4 hPa South 1.9 km/h   87% 0 mm WeatherDisplay:10.37 W/m2 OVC
10:05 21.8 °C 19.6 °C 1014.4 hPa SSE 1.9 km/h 0.2 km/h 87% 0 mm WeatherDisplay:10.37 W/m2 CLR
10:10 21.9 °C 19.6 °C 1014.4 hPa SSE 1.9 km/h 0.2 km/h 87% 0 mm WeatherDisplay:10.37 W/m2 CLR
10:15 22 °C 19.7 °C 1014.4 hPa SSE 5.6 km/h 0.2 km/h 87% 0 mm WeatherDisplay:10.37 W/m2 CLR
10:20 22.1 °C 19.8 °C 1014.4 hPa SSE 5.6 km/h 1.3 km/h 87% 0 mm WeatherDisplay:10.37 W/m2 OVC
10:25 22.2 °C 19.9 °C 1014.4 hPa SSE 5.6 km/h 0.2 km/h 87% 0 mm WeatherDisplay:10.37 W/m2 OVC
10:30 22.3 °C 20 °C 1014.1 hPa SSE 5.6 km/h 0.5 km/h 87% 0 mm WeatherDisplay:10.37 W/m2 CLR
10:35 22.4 °C 20 °C 1014.1 hPa SE 5.6 km/h 1.3 km/h 86% 0 mm WeatherDisplay:10.37 W/m2 OVC
10:40 22.6 °C 20.2 °C 1014.1 hPa SSW 5.6 km/h 1.1 km/h 86% 0 mm WeatherDisplay:10.37 W/m2 OVC
13:27 22.7 °C 20.2 °C 1014.1 hPa North 5.6 km/h   86% 0 mm WeatherDisplay:10.37 W/m2 CLR
13:33 22.7 °C 20.2 °C 1014.1 hPa North 5.6 km/h   86% 0 mm WeatherDisplay:10.37 W/m2 CLR
13:35 26.2 °C 19.8 °C 1011.4 hPa SSE 5.6 km/h 3.2 km/h 68% 0 mm WeatherDisplay:10.37 W/m2 CLR
13:40 27.4 °C 18.9 °C 1011.1 hPa NNW 11.1 km/h 3.2 km/h 60% 0 mm WeatherDisplay:10.37 W/m2 CLR
13:45 28.2 °C 18 °C 1011.1 hPa South 13 km/h 4 km/h 54% 0 mm WeatherDisplay:10.37 W/m2 OVC
13:50 28.8 °C 17.3 °C 1011.1 hPa South 13 km/h 1 km/h 50% 0 mm WeatherDisplay:10.37 W/m2 CLR
13:55 28.8 °C 17.3 °C 1011.1 hPa South 13 km/h 3.5 km/h 50% 0 mm WeatherDisplay:10.37 W/m2 OVC
14:00 29.3 °C 17.4 °C 1011.1 hPa South 13 km/h 0.6 km/h 49% 0 mm WeatherDisplay:10.37 W/m2 OVC
14:05 29.4 °C 17.3 °C 1011.1 hPa NNE 9.3 km/h 3.4 km/h 48% 0 mm WeatherDisplay:10.37 W/m2 OVC
14:10 29.7 °C 17.6 °C 1011.1 hPa SSE 9.3 km/h 3.7 km/h 48% 0 mm WeatherDisplay:10.37 W/m2 CLR
14:15 29.8 °C 17.3 °C 1010.7 hPa SSE 11.1 km/h 4 km/h 47% 0 mm WeatherDisplay:10.37 W/m2 OVC
14:20 30.3 °C 17.4 °C 1010.7 hPa SSE 11.1 km/h 1.9 km/h 46% 0 mm WeatherDisplay:10.37 W/m2 OVC
14:25 30.3 °C 17.1 °C 1010.7 hPa SSE 11.1 km/h 3.7 km/h 45% 0 mm WeatherDisplay:10.37 W/m2 OVC
14:30 30.2 °C 16.9 °C 1010.7 hPa SE 11.1 km/h 5.3 km/h 45% 0 mm WeatherDisplay:10.37 W/m2 CLR
14:35 30.1 °C 16.5 °C 1010.7 hPa SSE 11.1 km/h 0.8 km/h 44% 0 mm WeatherDisplay:10.37 W/m2 OVC
14:40 30.5 °C 16.9 °C 1010.4 hPa SE 11.1 km/h 1.8 km/h 44% 0 mm WeatherDisplay:10.37 W/m2 OVC
14:45 30.7 °C 17.1 °C 1010.4 hPa WNW 7.4 km/h 1 km/h 44% 0 mm WeatherDisplay:10.37 W/m2 OVC
14:50 31 °C 17.3 °C 1010.4 hPa SE 7.4 km/h 1.9 km/h 44% 0 mm WeatherDisplay:10.37 W/m2 OVC
14:55 31.2 °C 17.6 °C 1010.4 hPa South 5.6 km/h 2.7 km/h 44% 0 mm WeatherDisplay:10.37 W/m2 CLR
15:00 30.8 °C 16.8 °C 1010.4 hPa SE 14.8 km/h 4.3 km/h 43% 0 mm WeatherDisplay:10.37 W/m2 OVC
15:05 30.7 °C 17.1 °C 1010.4 hPa SSE 14.8 km/h 5.8 km/h 44% 0 mm WeatherDisplay:10.37 W/m2 CLR
15:10 30.6 °C 17 °C 1010.4 hPa South 11.1 km/h 3.5 km/h 44% 0 mm WeatherDisplay:10.37 W/m2 OVC
15:15 30.9 °C 16.9 °C 1010.4 hPa SSE 14.8 km/h 5 km/h 43% 0 mm WeatherDisplay:10.37 W/m2 OVC
15:20 30.9 °C 16.5 °C 1010.4 hPa SSE 16.7 km/h 2.7 km/h 42% 0 mm WeatherDisplay:10.37 W/m2 CLR
15:25 30.8 °C 16.4 °C 1010 hPa SSE 16.7 km/h 1.9 km/h 42% 0 mm WeatherDisplay:10.37 W/m2 CLR
15:30 30.4 °C 16.4 °C 1010 hPa SSE 14.8 km/h 4.8 km/h 43% 0 mm WeatherDisplay:10.37 W/m2 OVC
15:35 30.3 °C 16 °C 1010 hPa South 14.8 km/h 5.5 km/h 42% 0 mm WeatherDisplay:10.37 W/m2 CLR
15:40 30.1 °C 16.1 °C 1009.7 hPa ESE 14.8 km/h 2.7 km/h 43% 0 mm WeatherDisplay:10.37 W/m2 CLR
15:45 29.7 °C 15.8 °C 1009.7 hPa SSE 13 km/h 2.3 km/h 43% 0 mm WeatherDisplay:10.37 W/m2 CLR
15:50 30.1 °C 16.2 °C 1009.7 hPa SE 14.8 km/h 4 km/h 43% 0 mm WeatherDisplay:10.37 W/m2 OVC
15:55 30.6 °C 16.2 °C 1009.7 hPa SE 14.8 km/h 1.9 km/h 42% 0 mm WeatherDisplay:10.37 W/m2 CLR
16:00 30.8 °C 16.4 °C 1009.7 hPa SE 9.3 km/h 3.2 km/h 42% 0 mm WeatherDisplay:10.37 W/m2 OVC
16:05 30.8 °C 16.1 °C 1009.7 hPa SSE 11.1 km/h 4.5 km/h 41% 0 mm WeatherDisplay:10.37 W/m2 OVC
16:10 31.1 °C 16.3 °C 1009.7 hPa East 11.1 km/h 3.9 km/h 41% 0 mm WeatherDisplay:10.37 W/m2 CLR
16:15 30.7 °C 16.3 °C 1009.7 hPa SE 11.1 km/h 3.1 km/h 42% 0 mm WeatherDisplay:10.37 W/m2 CLR
16:20 30.8 °C 16.4 °C 1009.7 hPa SE 11.1 km/h 1.8 km/h 42% 0 mm WeatherDisplay:10.37 W/m2 OVC
16:25 31 °C 16.9 °C 1009.7 hPa SSE 9.3 km/h 1.8 km/h 43% 0 mm WeatherDisplay:10.37 W/m2 CLR
16:30 31.5 °C 17.1 °C 1009.4 hPa SSE 9.3 km/h 3.7 km/h 42% 0 mm WeatherDisplay:10.37 W/m2 OVC
16:35 31.1 °C 16.3 °C 1009.4 hPa SSE 14.8 km/h 6.4 km/h 41% 0 mm WeatherDisplay:10.37 W/m2 OVC
16:40 30.9 °C 16.5 °C 1009.4 hPa SSE 14.8 km/h 4.3 km/h 42% 0 mm WeatherDisplay:10.37 W/m2 OVC
16:45 30.8 °C 16.4 °C 1009.4 hPa SSE 11.1 km/h 2.6 km/h 42% 0 mm WeatherDisplay:10.37 W/m2 OVC
16:50 31.1 °C 16.3 °C 1009.7 hPa SSE 9.3 km/h 5.1 km/h 41% 0 mm WeatherDisplay:10.37 W/m2 OVC
16:55 30.9 °C 16.2 °C 1009.4 hPa SE 9.3 km/h 3.5 km/h 41% 0 mm WeatherDisplay:10.37 W/m2 CLR
17:00 31.1 °C 16.3 °C 1009.7 hPa South 11.1 km/h 3.9 km/h 41% 0 mm WeatherDisplay:10.37 W/m2 OVC
17:05 30.9 °C 16.2 °C 1009.4 hPa South 11.1 km/h 1.4 km/h 41% 0 mm WeatherDisplay:10.37 W/m2 CLR
17:10 31.1 °C 15.9 °C 1009.4 hPa South 14.8 km/h 5 km/h 40% 0 mm WeatherDisplay:10.37 W/m2 OVC
17:15 30.9 °C 15.8 °C 1009.4 hPa SSE 14.8 km/h 2.4 km/h 40% 0 mm WeatherDisplay:10.37 W/m2 OVC
17:20 31 °C 15.8 °C 1009.4 hPa SSE 13 km/h 5.8 km/h 40% 0 mm WeatherDisplay:10.37 W/m2 OVC
17:25 30.7 °C 15.6 °C 1009 hPa SE 11.1 km/h 4.3 km/h 40% 0 mm WeatherDisplay:10.37 W/m2 CLR
High Park Village Arhives